TimeMST,TemperatureF,Dew PointF,Humidity,Sea Level PressureIn,VisibilityMPH,Wind Direction,Wind SpeedMPH,Gust SpeedMPH,PrecipitationIn,Events,Conditions,WindDirDegrees,DateUTC
12:15 AM,44.6,24.8,46,30.16,5.0,ESE,4.6,-,N/A,,Haze,110,2013-01-20 07:15:00
12:35 AM,42.8,24.8,49,30.16,2.5,ESE,6.9,-,N/A,,Haze,110,2013-01-20 07:35:00
12:55 AM,42.8,24.8,49,30.16,2.0,ESE,4.6,-,N/A,,Haze,110,2013-01-20 07:55:00
1:15 AM,42.8,24.8,49,30.16,7.0,ESE,5.8,-,N/A,,Clear,120,2013-01-20 08:15:00
1:35 AM,42.8,24.8,49,30.17,10.0,ESE,5.8,-,N/A,,Clear,120,2013-01-20 08:35:00
1:55 AM,42.8,26.6,53,30.17,5.0,ESE,5.8,-,N/A,,Haze,110,2013-01-20 08:55:00
2:15 AM,42.8,26.6,53,30.17,3.0,East,6.9,-,N/A,,Haze,100,2013-01-20 09:15:00
2:35 AM,42.8,24.8,49,30.16,10.0,ESE,6.9,-,N/A,,Clear,110,2013-01-20 09:35:00
2:55 AM,42.8,24.8,49,30.16,5.0,SE,5.8,-,N/A,,Haze,130,2013-01-20 09:55:00
3:15 AM,41.0,23.0,49,30.16,2.5,East,4.6,-,N/A,,Haze,90,2013-01-20 10:15:00
3:35 AM,41.0,24.8,53,30.16,1.8,East,5.8,-,N/A,,Haze,90,2013-01-20 10:35:00
3:55 AM,42.8,23.0,46,30.16,7.0,SE,4.6,-,N/A,,Clear,130,2013-01-20 10:55:00
4:15 AM,42.8,23.0,46,30.16,7.0,SE,3.5,-,N/A,,Clear,130,2013-01-20 11:15:00
4:35 AM,41.0,23.0,49,30.16,10.0,SE,4.6,-,N/A,,Clear,140,2013-01-20 11:35:00
4:55 AM,41.0,24.8,53,30.15,10.0,SSE,4.6,-,N/A,,Clear,150,2013-01-20 11:55:00
5:15 AM,41.0,24.8,53,30.15,10.0,Calm,Calm,-,N/A,,Clear,0,2013-01-20 12:15:00
5:47 AM,39.2,23.0,52,30.16,20.0,SSE,3.5,-,N/A,,Clear,160,2013-01-20 12:47:00
6:54 AM,39.2,23.0,52,30.16,20.0,ENE,4.6,-,N/A,,Clear,70,2013-01-20 13:54:00
7:47 AM,37.4,23.0,56,30.16,35.0,ESE,4.6,-,N/A,,Clear,110,2013-01-20 14:47:00
8:47 AM,44.6,26.6,49,30.17,35.0,Calm,Calm,-,N/A,,Clear,0,2013-01-20 15:47:00
9:47 AM,51.8,26.6,38,30.18,35.0,Variable,3.5,-,N/A,,Unknown,0,2013-01-20 16:47:00
10:50 AM,57.2,23.0,27,30.17,35.0,West,4.6,-,N/A,,Clear,260,2013-01-20 17:50:00
11:47 AM,64.4,21.2,19,30.15,35.0,Calm,Calm,-,N/A,,Clear,0,2013-01-20 18:47:00
12:47 PM,66.2,19.4,17,30.11,35.0,NW,4.6,-,N/A,,Clear,310,2013-01-20 19:47:00
1:50 PM,73.4,19.4,13,30.07,35.0,NW,4.6,-,N/A,,Clear,320,2013-01-20 20:50:00
3:47 PM,75.2,17.6,11,30.03,45.0,NW,5.8,-,N/A,,Partly Cloudy,310,2013-01-20 22:47:00
4:47 PM,73.4,17.6,12,30.02,45.0,NW,6.9,-,N/A,,Partly Cloudy,310,2013-01-20 23:47:00
5:47 PM,66.2,21.2,18,30.03,20.0,WNW,5.8,-,N/A,,Scattered Clouds,300,2013-01-21 00:47:00
6:47 PM,60.8,24.8,25,30.04,20.0,Calm,Calm,-,N/A,,Scattered Clouds,0,2013-01-21 01:47:00
7:47 PM,60.8,24.8,25,30.05,20.0,Calm,Calm,-,N/A,,Scattered Clouds,0,2013-01-21 02:47:00
7:55 PM,60.8,23.0,23,30.05,10.0,Calm,Calm,-,N/A,,Clear,0,2013-01-21 02:55:00
8:15 PM,60.8,23.0,23,30.05,10.0,Calm,Calm,-,N/A,,Clear,0,2013-01-21 03:15:00
8:35 PM,55.4,23.0,29,30.05,10.0,Calm,Calm,-,N/A,,Clear,0,2013-01-21 03:35:00
8:47 PM,57.2,24.8,29,30.05,20.0,Calm,Calm,-,N/A,,Clear,0,2013-01-21 03:47:00
8:55 PM,55.4,24.8,31,30.05,10.0,Calm,Calm,-,N/A,,Clear,0,2013-01-21 03:55:00
9:15 PM,51.8,24.8,35,30.05,10.0,Calm,Calm,-,N/A,,Clear,0,2013-01-21 04:15:00
9:35 PM,51.8,23.0,33,30.06,10.0,Calm,Calm,-,N/A,,Clear,0,2013-01-21 04:35:00
9:55 PM,53.6,23.0,30,30.06,10.0,Calm,Calm,-,N/A,,Clear,0,2013-01-21 04:55:00
10:15 PM,51.8,26.6,38,30.07,10.0,ESE,8.1,-,N/A,,Clear,120,2013-01-21 05:15:00
10:35 PM,50.0,28.4,43,30.07,10.0,SSE,3.5,-,N/A,,Clear,160,2013-01-21 05:35:00
10:55 PM,50.0,28.4,43,30.06,10.0,ESE,3.5,-,N/A,,Clear,120,2013-01-21 05:55:00
11:15 PM,46.4,26.6,46,30.07,10.0,East,3.5,-,N/A,,Clear,90,2013-01-21 06:15:00
11:35 PM,46.4,26.6,46,30.07,10.0,ESE,6.9,-,N/A,,Clear,120,2013-01-21 06:35:00
11:55 PM,44.6,26.6,49,30.07,10.0,East,8.1,-,N/A,,Clear,90,2013-01-21 06:55:00